Flag Weather past 2 weeks in Shepparton, Victoria, Australia

Now
64 °F

Mild.


Feels Like: 64 °F
Forecast: 58 / 85 °F
Wind: 3 mph from Southwest

Location: Mangalore Airport

Current Time: Nov 24, 2014 at 1:42:11 AM

Latest Report: Nov 24, 2014 at 1:00 AM


Visibility: N/A

Pressure: 29.87 "Hg

Humidity: 69%

Dew point: 53 °F

Location of SheppartonLocation

Historic Weather in Shepparton — Graph

°F

Shepparton temperature yesterday

Maximum temperature yesterday: 89 °F (at 3:00 PM)
Minimum temperature yesterday: 61 °F (at 6:00 AM)
Average temperature yesterday: 73 °F

Past Weeks' High & Low Weather Summary

 TemperatureHumidityPressure
High91 °F (Nov 13, 4:00 PM)99% (Nov 16, 3:00 AM)30.20 "Hg (Nov 16, 3:00 AM)
Low46 °F (Nov 12, 6:00 AM)11% (Nov 12, 4:00 PM)29.58 "Hg (Nov 16, 4:00 AM)
Average65 °F54%29.93 "Hg
* Reported Midnight between Nov 8 and Nov 9 — Midnight between Nov 23 and Nov 24, Shepparton, Weather by CustomWeather, © 2014

Note: Actual official high and low records may vary slightly from our data, if they occured in-between our weather recording intervals... More about our weather records

Advertising

Shepparton weather history for previous 24 hours

 ConditionsComfort  
Time TempWeatherWind HumidityBarometerVisibility
12:00 AM
Nov 24
65 °FOvercast.5 mph66%29.89 "HgN/A
10:00 PM
Nov 23
69 °FMild.9 mph60%29.91 "HgN/A
9:00 PM71 °FOvercast.8 mph55%29.88 "HgN/A
7:00 PM80 °FWarm.10 mph41%29.84 "HgN/A
6:00 PM86 °FPartly sunny.15 mph25%29.81 "HgN/A
4:00 PM88 °FPleasantly warm.15 mph31%29.81 "HgN/A
3:00 PM89 °FPassing clouds.16 mph31%29.81 "HgN/A
1:00 PM83 °FWarm.6 mph41%29.83 "HgN/A
12:00 PM81 °FPleasantly warm.6 mph37%29.85 "HgN/A
10:00 AM74 °FMild.5 mph59%29.88 "HgN/A
9:00 AM70 °FMild.6 mph69%29.88 "HgN/A
7:00 AM62 °FCool.5 mph83%29.85 "HgN/A
6:00 AM61 °FPassing clouds.6 mph84%29.85 "HgN/A
4:00 AM63 °FMild.6 mph99%29.85 "HgN/A
3:00 AM63 °FOvercast.No wind99%29.83 "HgN/A
1:00 AM63 °FMild.6 mph95%29.81 "HgN/A
Weather by CustomWeather, © 2014

See weather overviewHow to use our weather pages